Starlink 4415

operational
NORAD ID: 53465 Int'l Des: 2022-099 Owner: SPXS Country: US Constellation: starlink
LEOCIRCULARRETROGRADESSO

About Starlink 4415

Description loading...

Live Position

Loading 3D Globe...

Upcoming Passes

Altitude History

Altitude vs Time

uPlot chart will show altitude changes over time

Two-Line Element Set

1 53465U 22099A 25352.27735543 .00001239 00000-0 90045-4 0 9995
2 53465 97.6033 110.9701 0000987 99.2401 260.8938 15.05648724183786
Epoch: Dec 18, 2025 • Age: 9 hours

Current Status

Altitude 578.1 km
Velocity 7.57 km/s
Sub-Earth Point -78.45°S, 173.67°W
Launch Date Aug 12, 2022
Age 3.3 years
Type internet

Technical Details

Classification Payload
Mass 300.00 kg
Dry Mass 275.00 kg
Total Mass 300.00 kg
Length 0.20 m
Diameter 2.80 m
Span 9.00 m
Shape Box + pan
Manufacturer SPXS
Bus Type Starlink
Phase Status In Orbit
Owner/State SPXS/US

Large Constellations

Loading constellations...